Location: Mascot Post Office (historical)
(40.2645°N, 99.5462°W)
Time: 02:46:43
(UTC+00:00)

Cosmos 2058 - Pass Details

Date: 14 July 2020
Orbit: 562 x 584 km, 82.5° (Epoch: 14 August)

Event Time Altitude Azimuth Distance (km) Brightness Sun altitude
Exits shadow 04:09:55 25° 198° (SSW) 1,163 4.1 -18.5°
Maximum altitude 04:12:14 72° 278° (W) 602 3.0 -18.7°
Drops below altitude 10° 04:16:21 10° 4° (N) 1,875 6.2 -19.2°
Sets 04:18:33 0° 6° (N) 2,773 7.2 -19.5°
